Tracking 29892 objects as of 21-Nov-2024
HD Live streaming from Space Station
objects crossing your sky now

RADUGA 1M-3 DEB

Track RADUGA 1M-3 DEB now!


NORAD ID: 55000
Int'l Code: 2013-062D
Perigee: 35,632.7 km
Apogee: 35,866.6 km
Inclination: 4.4 °
Period: 1,433.8 minutes
Semi major axis: 42120 km
RCS: Unknown
Launch date: November 11, 2013
Source: Commonwealth of Independent States (former USSR) (CIS)
Launch site: TYURATAM MISSILE AND SPACE COMPLEX (TTMTR)

Note: This is SATELLITE DEBRIS
Your satellite tracking list
Your tracking list is empty




NASA's NSSDC Master Catalog

Two Line Element Set (TLE):
1 55000U 13062D   24321.03194258  .00000108  00000-0  00000+0 0  9994
2 55000   4.4478  79.2750 0027759 171.2895 188.3855  1.00429278 17304
Source of the keplerian elements: AFSPC